utc_time,unix_time,temp,cond,salinity,tds,chla_rfu,chla_ugl,bga_rfu,bga_ugl,odo,sat,nitrate_um,nitrogen_mg,stage,area,discharge,total_discharge
2018-10-05 17:00:00+00:00,1538758814,18.537,37394.73,27.49,27.73,,,,,2.03,25.61,65.413,0.91622,0.961,1.5376,0.036,0.072
2018-10-05 17:20:00+00:00,1538760002,,,,,,,,,,,5.743,0.08044,0.9645,1.5432,0.07015,0.1403
2018-10-05 18:00:00+00:00,1538762401,19.283,48071.88,35.74,35.08,,,,,4.51,60.38,81.41,1.14028,0.966,1.5456,0.0449,0.0898
2018-10-05 18:20:00+00:00,1538763602,19.763,48867.38,35.99,35.29,,,,,4.77,64.57,74.379,1.04177,0.968,1.5488,0.0784,0.1568
2018-10-05 18:40:00+00:00,1538764801,20.304,49960.6,36.42,35.67,,,,,6.68,91.56,55.789,0.78141,0.969,1.5504,0.08,0.16
2018-10-05 19:00:00+00:00,1538766001,20.615,50384.93,36.5,35.74,,,,,7.82,107.88,52.466,0.7349,0.9605,1.5368,0.1081,0.2162
2018-10-05 19:40:00+00:00,1538768403,21.734,51240.42,36.23,35.52,,,,,8.62,121.12,53.571,0.75036,0.956,1.5296,0.0803,0.1606
2018-10-05 20:00:00+00:00,1538769601,21.937,51327.98,36.13,35.44,,,,,9.18,129.42,55.339,0.77511,0.9575,1.532,0.06175,0.1235
2018-10-05 20:20:00+00:00,1538770801,22.039,51374.07,36.08,35.39,,,,,9.66,136.29,57.841,0.81017,0.957,1.5312,0.0158,0.0316
2018-10-05 20:40:00+00:00,1538772001,22.414,51742.33,36.06,35.38,,,,,10.06,142.95,57.299,0.80259,0.957,1.5312,0,0
2018-10-05 21:00:00+00:00,1538773201,22.707,52020.58,36.04,35.36,,,,,10.41,148.56,56.871,0.79659,0.958,1.5328,0.0165,0.033
2018-10-05 21:20:00+00:00,1538774401,,,,,,,,,,,56.857,0.79639,0.957,1.5312,0.0258,0.0516
2018-10-05 21:40:00+00:00,1538775601,23.022,52318.73,36.01,35.34,,,,,10.76,154.46,56.515,0.79161,0.957,1.5312,0.0388,0.0776
2018-10-05 22:00:00+00:00,1538776801,23.355,52731.55,36.05,35.39,,,,,10.6,153.11,55.285,0.77437,0.959,1.5344,0.01795,0.0359
2018-10-05 22:20:00+00:00,1538778001,23.292,52624.96,36.02,35.36,,,,,10.26,148.03,54.432,0.76242,0.961,1.5376,0.049,0.098
2018-10-05 22:40:00+00:00,1538779201,23.277,52614.82,36.03,35.36,,,,,10.36,149.45,55.546,0.77804,0.961,1.5376,0.0533,0.1066
2018-10-05 23:00:00+00:00,1538780402,23.231,52579.07,36.04,35.37,,,,,10.59,152.65,54.742,0.76674,0.962,1.5392,0.0274,0.0548
2018-10-05 23:20:00+00:00,1538781601,23.295,52550.88,35.96,35.31,,,,,11.09,159.95,55.415,0.77615,0.964,1.5424,0.0405,0.081
2018-10-05 23:40:00+00:00,1538782801,23.175,52365.41,35.92,35.27,,,,,11.07,159.28,55.156,0.77255,0.966,1.5456,0.0014,0.0028
2018-10-06 00:00:00+00:00,1538784001,23.145,52370.7,35.95,35.29,,,,,11.17,160.57,55.071,0.77138,0.9665,1.5464,0.0116,0.0232
2018-10-06 00:20:00+00:00,1538785201,,,,,,,,,,,56.667,0.79373,0.967,1.5472,0.0102,0.0204
2018-10-06 00:40:00+00:00,1538786402,22.913,52031.07,35.87,35.22,,,,,11.13,159.32,57.552,0.80612,0.968,1.5488,0.0058,0.0116
2018-10-06 01:00:00+00:00,1538787601,22.737,51909.27,35.92,35.27,,,,,10.66,152.12,54.316,0.76081,0.969,1.5504,-0.02035,-0.0407
2018-10-06 01:20:00+00:00,1538788802,22.624,51730.92,35.88,35.22,,,,,11.1,158.16,55.432,0.7764,0.973,1.5568,0.0394,0.0788
2018-10-06 01:40:00+00:00,1538790002,22.503,51582.99,35.86,35.21,,,,,10.9,154.96,55.651,0.77945,0.977,1.5632,0.0367,0.0734
2018-10-06 02:00:00+00:00,1538791201,22.172,51193.86,35.83,35.18,,,,,11.32,159.98,57.814,0.80979,0.9815,1.5704,0.07445,0.1489
2018-10-06 02:20:00+00:00,1538792402,22.063,51129.13,35.87,35.21,,,,,10.48,147.8,57.1,0.79979,0.982,1.5712,0.0811,0.1622
2018-10-06 02:40:00+00:00,1538793601,22.002,51015.16,35.83,35.17,,,,,9.8,137.97,59.5,0.8334,0.982,1.5712,0.1121,0.2242
2018-10-06 03:00:00+00:00,1538794801,21.902,50852.5,35.78,35.13,,,,,9.34,131.34,59.941,0.83957,0.9835,1.5736,0.08785,0.1757
2018-10-06 03:20:00+00:00,1538796001,21.81,50687.32,35.73,35.08,,,,,8.69,121.92,62.074,0.86942,0.981,1.5696,0.0751,0.1502
2018-10-06 03:40:00+00:00,1538797202,21.54,50153.35,35.53,34.91,,,,,8.73,121.73,67.455,0.94484,0.988,1.5808,0.1425,0.285
2018-10-06 04:00:00+00:00,1538798401,21.339,49807.62,35.42,34.81,,,,,8.49,117.94,69.935,0.97957,0.9925,1.588,0.08055,0.1611
2018-10-06 04:20:00+00:00,1538799601,21.024,49327.46,35.29,34.7,,,,,8.4,115.96,73.49,1.02933,0.996,1.5936,0.1137,0.2274
2018-10-06 04:40:00+00:00,1538800801,20.613,48803.21,35.21,34.62,,,,,8,109.48,77.172,1.08091,0.992,1.5872,0.0462,0.0924
2018-10-06 05:00:00+00:00,1538802002,20.041,47640.93,34.74,34.21,,,,,7.75,104.69,85.941,1.20377,0.9955,1.5928,0.0546,0.1092
2018-10-06 05:20:00+00:00,1538803201,19.172,46714.54,34.7,34.17,,,,,7.28,96.77,95.006,1.33073,0.996,1.5936,0.0284,0.0568
2018-10-06 05:40:00+00:00,1538804402,18.717,45737.44,34.26,33.78,,,,,7.6,99.85,109.566,1.53467,0.995,1.592,0.0747,0.1494
2018-10-06 06:00:00+00:00,1538805601,18.664,45589.87,34.18,33.71,,,,,7.12,93.49,110.755,1.55131,0.9955,1.5928,0.10765,0.2153
2018-10-06 06:20:00+00:00,1538806802.4,20.367,48631.2033333333,35.2533333333333,34.66,,,,,8.13333333333333,111.28,52.9516666666667,0.741666666666667,0.998,1.5968,0.102,0.204
2018-10-09 22:20:00+00:00,1539123602,,,,,,,,,,,,,1.009,1.6144,0.044,0.088
2018-10-09 22:40:00+00:00,1539124801,,,,,,,,,,,,,1.009,1.6144,0.0561,0.1122
2018-10-09 23:00:00+00:00,1539126225.5,21.811,50672.72,35.72,35.07,,,,,7.14,100.22,35.468,0.49679,1.009,1.6144,0.05615,0.1123
2018-10-09 23:40:00+00:00,1539128401,21.55,50399.95,35.72,35.07,,,,,7.93,110.71,33.039,0.46277,1.009,1.6144,0.0394,0.0788
2018-10-10 00:00:00+00:00,1539129602,21.204,49894.18,35.6,34.97,,,,,8.43,116.97,28.041,0.39277,1.0105,1.6168,0.06,0.12
2018-10-10 00:20:00+00:00,1539130801,21.01,49683.48,35.59,34.96,,,,,10.82,149.52,28.723,0.40233,1.011,1.6176,0.0122,0.0244
2018-10-10 00:40:00+00:00,1539132002,20.731,49371.95,35.57,34.94,,,,,10.68,146.76,27.805,0.38945,1.01,1.616,0.038,0.076
2018-10-10 01:00:00+00:00,1539133201,20.764,49656.07,35.78,35.12,,,,,10.8,148.78,22.059,0.30896,0.9885,1.5816,-0.29135,-0.5827
2018-10-10 01:20:00+00:00,1539134402,20.652,49469.25,35.72,35.07,,,,,10.23,140.5,24.955,0.34954,0.978,1.5648,-0.1556,-0.3112
2018-10-10 01:40:00+00:00,1539135601,20.412,49076.43,35.6,34.96,,,,,9.16,125.16,27.676,0.38762,0.971,1.5536,-0.3104,-0.6208
2018-10-10 02:00:00+00:00,1539136802,20.322,49025.75,35.64,34.99,,,,,9.48,129.43,26.84,0.37594,0.9695,1.5512,-0.2792,-0.5584
2018-10-10 02:20:00+00:00,1539138001,20.087,48786.4,35.64,35,,,,,9.11,123.86,29.108,0.4077,0.983,1.5728,-0.0354,-0.0708
2018-10-10 02:40:00+00:00,1539139201,20.029,48716.75,35.63,34.99,,,,,7.83,106.27,29.671,0.4156,-1,-1,0,0
2018-10-10 03:00:00+00:00,1539140401,20.041,48774.94,35.67,35.02,,,,,7.42,100.8,26.18,0.3667,0.983,1.5728,0.014,0.028
2018-10-10 03:20:00+00:00,1539141601,20.029,48803.73,35.7,35.05,,,,,5.97,81.03,23.449,0.32844,0.984,1.5744,0.0089,0.0178
2018-10-10 03:40:00+00:00,1539142801,19.969,48836.18,35.78,35.12,,,,,7.36,99.97,23.604,0.33062,0.986,1.5776,-0.0296,-0.0592
2018-10-10 04:00:00+00:00,1539144001,19.961,48856.76,35.8,35.14,,,,,5.57,75.63,25.461,0.35667,0.987,1.5792,-0.00365,-0.0073
2018-10-10 04:20:00+00:00,1539145202,19.725,48655,35.84,35.17,,,,,7.74,104.57,20.696,0.28992,0.989,1.5824,0.0089,0.0178
2018-10-10 04:40:00+00:00,1539146401,19.553,48471.99,35.84,35.17,,,,,7.47,100.61,23.324,0.3267,0.988,1.5808,-0.0089,-0.0178
2018-10-10 05:00:00+00:00,1539147602,19.401,48334.61,35.85,35.18,,,,,7.72,103.81,29.485,0.41299,0.9925,1.588,-0.02685,-0.0537
2018-10-10 05:20:00+00:00,1539148801,19.533,48234.42,35.66,35.01,,,,,7.54,101.42,27.369,0.38335,0.993,1.5888,0.0209,0.0418
2018-10-10 05:40:00+00:00,1539150002,19.366,48218.49,35.79,35.12,,,,,8.04,107.95,26.82,0.37565,0.996,1.5936,-0.0135,-0.027
2018-10-10 06:00:00+00:00,1539151201,19.088,47624.75,35.53,34.9,,,,,8.04,107.28,24.491,0.34303,0.9955,1.5928,0.00375,0.0075
2018-10-11 20:40:00+00:00,1539291220,19.93,47842.61,35,34.43,,,,,12.1,163.4,25.759,0.360785,1.049,1.6784,0.1311,0.2622
2018-10-12 16:40:00+00:00,1539362402,,,,,,,,,,,,,1.044,1.6704,-0.055,-0.11
2018-10-12 17:00:00+00:00,1539363602,,,,,,,,,,,,,1.0445,1.6712,0.0346,0.0692
2018-10-12 17:40:00+00:00,1539366728,16.91,38964.58,29.94,29.96,,,,,7.03,86.96,24.616,0.34478,1.041,1.6656,0.1191,0.2382
2018-10-12 18:00:00+00:00,1539367201,17.208,39202.88,29.93,29.94,,,,,5.93,73.77,25.023,0.3505,1.0445,1.6712,0.12345,0.2469
2018-10-12 18:20:00+00:00,1539368401,17.302,39390.17,30.02,30.02,,,,,6.01,74.91,28.058,0.39301,1.048,1.6768,0.1278,0.2556
2018-10-12 18:40:00+00:00,1539369602,18.185,40213.39,30.06,30.05,,,,,5.79,73.5,28.844,0.40399,1.049,1.6784,0.1295,0.259
2018-10-12 19:00:00+00:00,1539370801,17.876,39958.54,30.07,30.06,,,,,8.85,111.71,24.584,0.34433,1.0505,1.6808,0.08145,0.1629
2018-10-12 19:20:00+00:00,1539372002,18.159,40116.58,30,29.99,,,,,9,114.13,24.942,0.34938,1.058,1.6928,0.0367,0.0734
2018-10-12 19:40:00+00:00,1539373201,18.519,40648.55,30.17,30.15,,,,,9.87,126.12,25.714,0.36017,1.058,1.6928,0.0845,0.169
2018-10-12 20:00:00+00:00,1539374402,18.838,40702.8,29.99,29.99,,,,,10.12,130.04,25.382,0.35554,1.055,1.688,0.15095,0.3019
2018-10-12 20:20:00+00:00,1539375601,19.228,40753.69,29.75,29.77,,,,,10.63,137.31,26.572,0.37218,1.053,1.6848,0.1411,0.2822
2018-10-12 20:40:00+00:00,1539376802,19.73,40804.09,29.43,29.49,,,,,11.49,149.6,24.891,0.34864,1.055,1.688,0.1875,0.375
2018-10-12 21:00:00+00:00,1539378001,20.057,40696.15,29.12,29.21,,,,,11.99,156.68,24.884,0.34857,1.055,1.688,0.16845,0.3369
2018-10-12 21:20:00+00:00,1539379202,20.347,40680.43,28.91,29.02,,,,,12.42,163.02,25.09,0.35143,1.059,1.6944,0.1452,0.2904
2018-10-12 21:40:00+00:00,1539380401,20.688,40914.15,28.86,28.98,,,,,12.48,164.82,25.352,0.3551,1.057,1.6912,0.1767,0.3534
2018-10-12 22:00:00+00:00,1539381601,20.914,41094.3,28.85,28.97,,,,,12.44,165.01,23.532,0.32963,1.059,1.6944,0.1603,0.3206
2018-10-12 22:20:00+00:00,1539382801,20.832,41024.98,28.85,28.97,,,,,12,158.89,22.356,0.31317,1.061,1.6976,0.1151,0.2302
2018-10-12 22:40:00+00:00,1539384001,20.713,41245.62,29.1,29.2,,,,,11.85,156.75,23.243,0.32555,1.062,1.6992,0.0832,0.1664
2018-10-12 23:00:00+00:00,1539385201,20.904,42591.52,30.03,30.03,,,,,11.54,154.11,22.849,0.32006,1.0615,1.6984,0.1375,0.275
2018-10-12 23:20:00+00:00,1539386401,21.029,41408.33,29.02,29.12,,,,,10.39,138.19,22.788,0.31915,1.067,1.7072,0.0997,0.1994
2018-10-12 23:40:00+00:00,1539387601,21.091,42222.27,29.61,29.66,,,,,9.16,122.45,27.19,0.38083,1.066,1.7056,0.0899,0.1798
2018-10-13 00:00:00+00:00,1539388801,21.068,41255.25,28.87,28.99,,,,,8.27,109.97,28.817,0.40363,1.068,1.7088,0.10465,0.2093
2018-10-13 00:20:00+00:00,1539390001,20.946,40516.89,28.38,28.55,,,,,7.83,103.61,30.83,0.43183,1.07,1.712,0.0661,0.1322
2018-10-13 00:40:00+00:00,1539391202,20.565,40190.43,28.38,28.54,,,,,8.78,115.4,38.934,0.5453,1.073,1.7168,0.0356,0.0712
2018-10-13 01:00:00+00:00,1539392401,20.503,41388.84,29.36,29.43,,,,,8.02,105.83,44.669,0.62564,1.0755,1.7208,0.0778,0.1556
2018-10-13 01:20:00+00:00,1539393601,20.075,42744.68,30.75,30.67,,,,,10.69,141.2,45.551,0.63799,1.074,1.7184,0.0567,0.1134
2018-10-13 01:40:00+00:00,1539394802,19.944,45295.59,32.9,32.59,,,,,9.97,132.96,41.278,0.57817,1.075,1.72,0.0486,0.0972
2018-10-13 02:00:00+00:00,1539396001,20.06,45498.06,32.98,32.65,,,,,10.02,134.06,21.939,0.30731,1.0755,1.7208,0.03485,0.0697
2018-10-13 02:20:00+00:00,1539397201,19.875,45155.39,32.85,32.54,,,,,10.97,146.1,19.771,0.27694,1.076,1.7216,0.0324,0.0648
2018-10-13 02:40:00+00:00,1539398402,19.816,44519.52,32.37,32.12,,,,,10.88,144.3,19.172,0.26854,1.075,1.72,0.0356,0.0712
2018-10-13 03:00:00+00:00,1539399601,19.697,43816.68,31.89,31.69,,,,,10.44,137.82,16.532,0.23157,1.0585,1.6936,-0.3285,-0.657
2018-10-13 03:20:00+00:00,1539400801,19.665,43207.18,31.42,31.27,,,,,10.13,133.23,13.606,0.19055,1.039,1.6624,-0.5411,-1.0822
2018-10-13 03:40:00+00:00,1539402002,19.613,43637.05,31.81,31.62,,,,,9.89,130.27,13.218,0.18512,1.028,1.6448,-0.6078,-1.2156
2018-10-13 04:00:00+00:00,1539403202,19.548,43216.21,31.52,31.36,,,,,9.5,124.75,13.006,0.18215,1.0185,1.6296,-0.62585,-1.2517
2018-10-13 04:20:00+00:00,1539404401,19.481,44552.37,32.66,32.37,,,,,8.31,109.68,14.344,0.2009,1.005,1.608,-0.4909,-0.9818
2018-10-13 04:40:00+00:00,1539405601,19.43,43542.73,31.87,31.67,,,,,6.49,85.2,18.524,0.25945,1.013,1.6208,-0.3762,-0.7524
2018-10-13 05:00:00+00:00,1539406802,19.253,44119.25,32.48,32.21,,,,,7.2,94.52,23.049,0.32282,1.0215,1.6344,-0.1673,-0.3346
2018-10-13 05:20:00+00:00,1539408001,19.212,44224.86,32.6,32.32,,,,,3.53,46.37,26.955,0.37755,1.031,1.6496,-0.0434,-0.0868
2018-10-13 05:40:00+00:00,1539409201,19.152,43720.04,32.23,31.99,,,,,4.7,61.59,31.635,0.44308,1.028,1.6448,-0.0557,-0.1114
2018-10-13 06:00:00+00:00,1539410402,19.116,43866.42,32.38,32.12,,,,,3.13,40.97,33.777,0.47309,1.026,1.6416,-0.07025,-0.1405
2018-10-13 06:20:00+00:00,1539411602,18.973,43774.55,32.42,32.15,,,,,5.14,67.14,33.791,0.47328,1.027,1.6432,-0.0881,-0.1762
2018-10-13 06:40:00+00:00,1539412801,18.922,43745.28,32.43,32.17,,,,,6.15,80.25,30.979,0.43391,1.028,1.6448,-0.1021,-0.2042
2018-10-13 07:00:00+00:00,1539414002,18.873,43346.21,32.14,31.91,,,,,5.51,71.73,21.021,0.29445,1.0285,1.6456,0.00695,0.0139
2018-10-13 07:20:00+00:00,1539415201,18.84,43638.38,32.41,32.15,,,,,5.26,68.5,14.19,0.19877,1.03,1.648,0.0697,0.1394
2018-10-13 07:40:00+00:00,1539416401,18.77,43338.08,32.21,31.97,,,,,1.53,19.91,13.127,0.18387,1.03,1.648,0.1317,0.2634
2018-10-13 08:00:00+00:00,1539417602,18.62,43545.21,32.5,32.23,,,,,5.14,66.7,13.361,0.18712,1.029,1.6464,0.0642,0.1284
2018-10-13 08:20:00+00:00,1539418802,18.674,43454.64,32.39,32.13,,,,,6.06,78.74,12.272,0.17186,1.028,1.6448,0.1114,0.2228
2018-10-13 08:40:00+00:00,1539420001,18.592,43224.54,32.26,32.01,,,,,4.36,56.56,13.22,0.18514,1.03,1.648,0.0883,0.1766
2018-10-13 09:00:00+00:00,1539421201,18.535,43645.88,32.65,32.37,,,,,5.21,67.56,14.933,0.20914,1.5405,2.4648,0.1023,0.2046
2018-10-13 09:20:00+00:00,1539422402,18.401,43436.02,32.58,32.31,,,,,4.81,62.24,13.726,0.19225,1.035,1.656,0.0997,0.1994
2018-10-13 09:40:00+00:00,1539423601,18.252,43409.24,32.68,32.39,,,,,4.75,61.25,13.877,0.19436,1.035,1.656,0.1106,0.2212
2018-10-13 10:00:00+00:00,1539424801,18.143,43036.48,32.45,32.19,,,,,5.28,67.89,13.339,0.18684,1.0415,1.6664,0.0776,0.1552
2018-10-13 10:20:00+00:00,1539426001,18.019,42821.55,32.37,32.12,,,,,5.06,64.94,13.287,0.18615,1.044,1.6704,0.0472,0.0944
2018-10-13 10:40:00+00:00,1539427202,17.95,42618.59,32.25,32.01,,,,,3.82,48.95,12.545,0.17571,1.045,1.672,0.0551,0.1102
2018-10-13 11:00:00+00:00,1539428401,,,,,,,,,,,12.635,0.17696,1.047,1.6752,0.06065,0.1213
2018-10-13 11:20:00+00:00,1539429601,17.734,42429.12,32.26,32.02,,,,,4.02,51.2,13.363,0.18718,1.048,1.6768,0.03,0.06
2018-10-13 11:40:00+00:00,1539430801,17.645,42509.42,32.4,32.15,,,,,3.21,40.89,12.405,0.17377,1.044,1.6704,0.1305,0.261
2018-10-13 12:00:00+00:00,1539432001,17.565,42247.2,32.24,32.01,,,,,3.8,48.26,10.86,0.15211,1.046,1.6736,0.07875,0.1575
2018-10-13 12:20:00+00:00,1539433202,17.425,42744.99,32.78,32.48,,,,,4.01,50.93,12.982,0.18185,1.048,1.6768,0.0379,0.0758
2018-10-13 12:40:00+00:00,1539434402,17.281,42572.25,32.75,32.46,,,,,3.54,44.91,13.677,0.19157,1.049,1.6784,0.0379,0.0758
2018-10-13 13:00:00+00:00,1539435601,17.149,42407.57,32.71,32.43,,,,,3.06,38.63,15.762,0.22076,1.0505,1.6808,0.03085,0.0617
2018-10-13 13:20:00+00:00,1539436801,17.068,42191.16,32.59,32.32,,,,,2.61,32.86,17.063,0.23899,1.052,1.6832,0.084,0.168
2018-10-13 13:40:00+00:00,1539438002,16.982,42080.03,32.57,32.3,,,,,2.06,25.92,20.42,0.28604,1.052,1.6832,0.0824,0.1648
2018-10-13 14:00:00+00:00,1539439202,16.396,41541.77,32.57,32.31,,,,,4.2,52.31,22.483,0.31492,1.0525,1.684,0.08085,0.1617
2018-10-13 14:20:00+00:00,1539440401,16.471,41462.39,32.44,32.2,,,,,5.19,64.6,26.85,0.37609,1.053,1.6848,0.0048,0.0096
2018-10-13 14:40:00+00:00,1539441602,16.528,41571.83,32.49,32.24,,,,,3.6,44.95,25.182,0.35271,1.053,1.6848,0.0809,0.1618
2018-10-13 15:00:00+00:00,1539442802,16.536,41528.16,32.45,32.2,,,,,3.7,46.19,23.743,0.33257,1.054,1.6864,0.06745,0.1349
2018-10-13 15:20:00+00:00,1539444001,16.537,41341.24,32.28,32.05,,,,,3.56,44.32,28.161,0.39444,1.054,1.6864,0.0524,0.1048
2018-10-13 15:40:00+00:00,1539445201,16.533,41336.96,32.28,32.05,,,,,3.05,37.99,27.703,0.38804,1.055,1.688,0.0222,0.0444
2018-10-13 16:00:00+00:00,1539446402,16.579,41235.91,32.16,31.94,,,,,3.84,47.8,24.944,0.34937,1.0525,1.684,0.04595,0.0919
2018-10-13 16:20:00+00:00,1539447602,16.444,41458.32,32.46,32.21,,,,,3.88,48.29,25.119,0.35185,1.051,1.6816,0.0918,0.1836
2018-10-13 16:40:00+00:00,1539448802,16.405,41329.09,32.38,32.14,,,,,4.01,49.82,30.748,0.43067,1.053,1.6848,0.0507,0.1014
2018-10-13 17:00:00+00:00,1539450002,16.513,41664.08,32.59,32.32,,,,,4.61,57.46,33.159,0.46444,1.0545,1.6872,0.0643,0.1286
2018-10-13 17:20:00+00:00,1539451201,16.812,42130.66,32.75,32.46,,,,,4.95,62.23,34.081,0.47736,1.052,1.6832,0.0745,0.149
2018-10-13 17:40:00+00:00,1539452401,17.061,42024.23,32.45,32.2,,,,,5.67,71.46,28.827,0.40379,1.051,1.6816,0.114,0.228
2018-10-13 18:00:00+00:00,1539453602,17.331,39660.51,30.22,30.2,,,,,5.87,73.33,32.09,0.44948,1.0515,1.6824,0.08705,0.1741
2018-10-13 18:20:00+00:00,1539454801,17.672,41023.01,31.12,31,,,,,7.04,89.05,27.084,0.37939,1.057,1.6912,0.0796,0.1592
2018-10-13 18:40:00+00:00,1539456001,17.967,40313.54,30.3,30.27,,,,,8.1,102.57,30.667,0.42957,1.059,1.6944,0.1005,0.201
2018-10-13 19:00:00+00:00,1539457202,,,,,,,,,,,32.206,0.4511,1.058,1.6928,0.09085,0.1817
2018-10-13 19:20:00+00:00,1539458402,18.405,43052.17,32.26,32.02,,,,,9.24,119.29,32.732,0.45846,1.057,1.6912,0.1178,0.2356
2018-10-13 19:40:00+00:00,1539459601,19.017,43639.67,32.27,32.03,,,,,8.79,114.79,34.293,0.48032,1.056,1.6896,0.1066,0.2132
2018-10-13 20:00:00+00:00,1539460801,19.074,43815.91,32.37,32.12,,,,,9.82,128.52,33.325,0.46678,1.0585,1.6936,0.14425,0.2885
2018-10-13 20:20:00+00:00,1539462002,19.338,44095.12,32.4,32.14,,,,,10.67,140.38,34.552,0.48395,1.059,1.6944,0.1037,0.2074
2018-10-13 20:40:00+00:00,1539463201,19.58,44311.77,32.39,32.13,,,,,10.53,139.05,34.891,0.48873,1.063,1.7008,0.1025,0.205
2018-10-13 21:00:00+00:00,1539464401,19.787,44505.65,32.38,32.13,,,,,11.01,145.95,33.13,0.46406,1.063,1.7008,0.12575,0.2515
2018-10-13 21:20:00+00:00,1539465602,20.009,44386.01,32.12,31.89,,,,,11.59,154.07,34.479,0.48292,1.063,1.7008,0.0977,0.1954
2018-10-13 21:40:00+00:00,1539466802,20.007,44230.57,31.99,31.78,,,,,12.2,162.1,33.208,0.46512,1.066,1.7056,0.1076,0.2152
2018-10-13 22:00:00+00:00,1539468001,20.108,43973.87,31.71,31.53,,,,,11.98,159.12,34.988,0.49005,1.0675,1.708,0.1263,0.2526
2018-10-13 22:20:00+00:00,1539469201,20.178,43645.01,31.39,31.25,,,,,12.06,160.17,33.606,0.47072,1.069,1.7104,0.1208,0.2416
2018-10-13 22:40:00+00:00,1539470402,20.091,43115.37,31.03,30.92,,,,,11.74,155.32,34.406,0.48191,1.07,1.712,0.1177,0.2354
2018-10-13 23:00:00+00:00,1539471602,19.961,42496.43,30.63,30.56,,,,,11.47,151,36.637,0.51316,1.073,1.7168,0.1358,0.2716
2018-10-13 23:20:00+00:00,1539472801,19.585,41923.85,30.44,30.39,,,,,11.72,153.01,41.17,0.57666,1.075,1.72,0.1329,0.2658
2018-10-13 23:40:00+00:00,1539474001,19.655,42165.82,30.58,30.52,,,,,10.7,140.03,42.303,0.59252,1.076,1.7216,0.133,0.266
2018-10-14 00:00:00+00:00,1539475202,19.497,42018.74,30.58,30.52,,,,,10.33,134.82,45.399,0.63588,1.0745,1.7192,0.09955,0.1991
2018-10-14 00:20:00+00:00,1539476402,19.235,41459.34,30.32,30.28,,,,,11.34,147.06,43.75,0.6128,1.077,1.7232,0.1055,0.211
2018-10-14 00:40:00+00:00,1539477601,19.439,41267.61,30.01,30.01,,,,,9.91,128.76,42.486,0.59508,1.079,1.7264,0.0911,0.1822
2018-10-14 01:00:00+00:00,1539478801,19.367,41455.95,30.22,30.2,,,,,8.53,110.83,40.653,0.56941,1.0805,1.7288,0.0847,0.1694
2018-10-14 01:20:00+00:00,1539480001,19.232,40933.13,29.89,29.9,,,,,6.85,88.52,48.742,0.68271,1.081,1.7296,0.1206,0.2412
2018-10-14 01:40:00+00:00,1539481202,19.069,40777.85,29.88,29.89,,,,,8.27,106.64,46.523,0.65163,1.082,1.7312,0.0555,0.111
2018-10-14 02:00:00+00:00,1539482402,19.064,41196.48,30.23,30.2,,,,,7.24,93.51,43.944,0.61548,1.0815,1.7304,0.08065,0.1613
2018-10-14 02:20:00+00:00,1539483601,19.029,42725.67,31.51,31.35,,,,,5.24,68.15,47.153,0.66049,1.081,1.7296,0.0962,0.1924
2018-10-14 02:40:00+00:00,1539484801,18.961,43707.13,32.37,32.11,,,,,2.8,36.52,47.336,0.66303,1.082,1.7312,0.0522,0.1044
2018-10-14 03:00:00+00:00,1539486002,18.893,43254.89,32.05,31.83,,,,,8.72,113.45,36.667,0.5136,1.082,1.7312,-0.04325,-0.0865
2018-10-14 03:20:00+00:00,1539487201,18.758,42800.42,31.78,31.59,,,,,8.34,108.16,35.286,0.49424,1.08,1.728,-0.0798,-0.1596
2018-10-14 03:40:00+00:00,1539488401,18.745,42741.48,31.74,31.55,,,,,8.71,112.81,30.729,0.43039,1.084,1.7344,-0.0294,-0.0588
2018-10-14 04:00:00+00:00,1539489602,18.821,42963.14,31.86,31.66,,,,,8.59,111.51,25.098,0.35153,1.061,1.6976,-0.1965,-0.393
2018-10-14 04:20:00+00:00,1539490802,18.803,42872.44,31.8,31.61,,,,,8.21,106.54,25.289,0.35422,1.046,1.6736,-0.4536,-0.9072
2018-10-14 04:40:00+00:00,1539492001,18.822,42841.83,31.76,31.57,,,,,7.95,103.22,22.305,0.3124,1.037,1.6592,-0.4869,-0.9738
2018-10-14 05:00:00+00:00,1539493201,18.798,43112.51,32,31.79,,,,,7.39,96.04,24.266,0.33989,1.0275,1.644,-0.5008,-1.0016
2018-10-14 05:20:00+00:00,1539494402,18.641,43023.27,32.05,31.83,,,,,6.69,86.63,27.009,0.37828,1.024,1.6384,-0.5576,-1.1152
2018-10-14 05:40:00+00:00,1539495601,18.674,43135.45,32.12,31.89,,,,,6.41,83.16,25.886,0.3626,1.025,1.64,-0.219,-0.438
2018-10-14 06:00:00+00:00,1539496801,18.719,42897.29,31.89,31.68,,,,,5.23,67.75,30.835,0.43189,1.037,1.6592,0.01665,0.0333
2018-10-14 06:20:00+00:00,1539498002,18.716,42867.66,31.86,31.66,,,,,4.58,59.36,36.592,0.51253,1.039,1.6624,0.0438,0.0876
2018-10-14 06:40:00+00:00,1539499201,18.632,42967.2,32.01,31.8,,,,,6.35,82.23,35.764,0.50095,1.038,1.6608,0.0437,0.0874
2018-10-14 07:00:00+00:00,1539500401,18.641,42686.55,31.77,31.58,,,,,3.81,49.21,33.868,0.47438,1.0395,1.6632,0.0344,0.0688
2018-10-14 07:20:00+00:00,1539501601,18.61,42573.39,31.7,31.52,,,,,3.27,42.24,20.51,0.28727,1.04,1.664,0.0188,0.0376
2018-10-14 07:40:00+00:00,1539502802,18.486,42964.61,32.12,31.9,,,,,5.6,72.38,21.373,0.29936,1.038,1.6608,-0.0281,-0.0562
2018-10-14 08:00:00+00:00,1539504001,18.459,42860.5,32.06,31.84,,,,,4.51,58.27,23.477,0.32885,1.0405,1.6648,0.02115,0.0423
2018-10-14 08:20:00+00:00,1539505201,18.461,43107.39,32.26,32.02,,,,,4.19,54.13,26.465,0.37068,1.043,1.6688,0.0173,0.0346
2018-10-14 08:40:00+00:00,1539506401,18.468,42977.07,32.15,31.92,,,,,2.7,34.91,18.488,0.25896,1.042,1.6672,-0.0031,-0.0062
2018-10-14 09:00:00+00:00,1539507601,18.398,42971.31,32.2,31.96,,,,,4.34,56.08,16.428,0.23013,1.0435,1.6696,0.03925,0.0785
2018-10-14 09:20:00+00:00,1539508802,18.388,42408.7,31.74,31.55,,,,,4.2,54.02,22.785,0.31914,1.044,1.6704,0.0236,0.0472
2018-10-14 09:40:00+00:00,1539510002,18.359,42822.56,32.1,31.88,,,,,4.26,54.86,19.684,0.27571,1.045,1.672,0.0456,0.0912
2018-10-14 10:00:00+00:00,1539511202,18.344,43158.26,32.4,32.14,,,,,4.19,54.03,21.929,0.30714,1.0435,1.6696,0.05185,0.1037
2018-10-14 10:20:00+00:00,1539512401,18.313,42870.54,32.18,31.95,,,,,3.14,40.48,21.317,0.2986,1.044,1.6704,0.0644,0.1288
2018-10-14 10:40:00+00:00,1539513601,18.302,42999.55,32.3,32.05,,,,,4,51.55,22.44,0.31431,1.048,1.6768,0.0126,0.0252
2018-10-14 11:00:00+00:00,1539514802,18.286,42872.95,32.2,31.97,,,,,3.61,46.46,17.38,0.24343,1.048,1.6768,0.0134,0.0268
2018-10-14 11:20:00+00:00,1539516001,18.264,42967.41,32.3,32.05,,,,,2.46,31.67,19.895,0.27865,1.048,1.6768,0.1073,0.2146
2018-10-14 11:40:00+00:00,1539517201,17.622,42205.66,32.16,31.93,,,,,5.28,67.2,22.138,0.31008,1.049,1.6784,0.0411,0.0822
2018-10-14 12:00:00+00:00,1539518402,17.574,42589.43,32.53,32.26,,,,,5.37,68.36,26.763,0.37486,1.051,1.6816,0.0435,0.087
2018-10-14 12:20:00+00:00,1539519602,17.408,42317.79,32.43,32.17,,,,,5.61,71.13,33.1,0.46361,1.052,1.6832,0.0856,0.1712
2018-10-14 12:40:00+00:00,1539520801,17.24,41850.49,32.16,31.94,,,,,5.83,73.55,38.282,0.53619,1.049,1.6784,0.0695,0.139
2018-10-14 13:00:00+00:00,1539522001,17.148,42071.32,32.43,32.17,,,,,5.22,65.92,43.317,0.60672,1.051,1.6816,0.1321,0.2642